| time (UTC) | temp C | wind direction | speed KPH | gust KPH | rain 1hr cm | rain 24hr cm | rain mn cm | humidity % | barometer mb |
| 20260506044530 | 3 | 319 | 1.6 | 4.8 | 0.05 | 0.51 | 0.51 | 91 | 1015.7 |
| 20260506043037 | 3 | 319 | 1.6 | 8.0 | 0.00 | 0.46 | 0.46 | 90 | 1015.0 |
| 20260506041526 | 3 | 318 | 3.2 | 6.4 | 0.00 | 0.46 | 0.46 | 90 | 1014.4 |
| 20260506040023 | 3 | 318 | 3.2 | 8.0 | 0.05 | 0.46 | 0.46 | 89 | 1014.5 |
| 20260506034526 | 3 | 318 | 1.6 | 9.7 | 0.20 | 0.46 | 0.46 | 89 | 1014.7 |
| 20260506033020 | 3 | 279 | 4.8 | 11.3 | 0.20 | 0.46 | 0.46 | 89 | 1014.8 |
| 20260506031517 | 3 | 263 | 6.4 | 12.9 | 0.20 | 0.46 | 0.46 | 88 | 1014.4 |
| 20260506030020 | 4 | 244 | 9.7 | 24.1 | 0.15 | 0.41 | 0.41 | 86 | 1014.1 |
| 20260506024530 | 4 | 63 | 3.2 | 8.0 | 0.03 | 0.25 | 0.25 | 89 | 1012.8 |
| 20260506023011 | 4 | 59 | 3.2 | 8.0 | 0.20 | 0.25 | 0.25 | 90 | 1011.8 |
| 20260506021511 | 4 | 59 | 1.6 | 6.4 | 0.25 | 0.25 | 0.25 | 88 | 1012.1 |
| 20260506020008 | 5 | 59 | 0.0 | 4.8 | 0.25 | 0.25 | 0.25 | 85 | 1012.0 |
| 20260506014508 | 5 | 250 | 0.0 | 20.9 | 0.23 | 0.23 | 0.23 | 83 | 1012.1 |
| 20260506013003 | 8 | 248 | 14.5 | 37.0 | 0.05 | 0.05 | 0.05 | 66 | 1011.6 |
| 20260506011502 | 10 | 248 | 1.6 | 11.3 | 0.00 | 0.00 | 0.00 | 53 | 1010.0 |
| 20260506010001 | 10 | 245 | 6.4 | 16.1 | 0.00 | 0.00 | 0.00 | 51 | 1010.1 |
| 20260506004604 | 11 | 240 | 8.0 | 24.1 | 0.00 | 0.00 | 0.00 | 48 | 1010.1 |
| 20260506003100 | 11 | 256 | 11.3 | 19.3 | 0.00 | 0.00 | 0.00 | 47 | 1010.1 |
| 20260506001600 | 11 | 257 | 8.0 | 24.1 | 0.00 | 0.00 | 0.00 | 48 | 1010.0 |
| 20260506000058 | 11 | 235 | 8.0 | 27.4 | 0.00 | 0.00 | 0.00 | 49 | 1009.8 |
| 20260505234608 | 12 | 241 | 12.9 | 25.7 | 0.00 | 0.00 | 0.00 | 49 | 1010.0 |
| 20260505233057 | 10 | 226 | 12.9 | 25.7 | 0.00 | 0.00 | 0.00 | 53 | 1009.9 |
| 20260505231606 | 11 | 252 | 8.0 | 27.4 | 0.00 | 0.00 | 0.00 | 51 | 1009.8 |
| 20260505230055 | 11 | 244 | 8.0 | 32.2 | 0.00 | 0.00 | 0.00 | 52 | 1009.7 |
| 20260505224554 | 11 | 239 | 4.8 | 20.9 | 0.00 | 0.00 | 0.00 | 50 | 1009.4 |
| 20260505223103 | 11 | 225 | 8.0 | 29.0 | 0.00 | 0.00 | 0.00 | 49 | 1009.6 |
| 20260505221558 | 12 | 226 | 12.9 | 25.7 | 0.00 | 0.00 | 0.00 | 48 | 1009.7 |
| 20260505220052 | 12 | 244 | 12.9 | 25.7 | 0.00 | 0.00 | 0.00 | 46 | 1009.6 |
| 20260505214611 | 13 | 236 | 4.8 | 24.1 | 0.00 | 0.00 | 0.00 | 48 | 1009.7 |
| 20260505213046 | 12 | 240 | 11.3 | 22.5 | 0.00 | 0.00 | 0.00 | 49 | 1010.1 |
| 20260505211544 | 12 | 252 | 9.7 | 24.1 | 0.00 | 0.00 | 0.00 | 50 | 1010.1 |
| 20260505210044 | 11 | 261 | 12.9 | 22.5 | 0.00 | 0.00 | 0.00 | 52 | 1010.4 |
| 20260505204540 | 12 | 259 | 8.0 | 27.4 | 0.00 | 0.00 | 0.00 | 51 | 1010.5 |
| 20260505203040 | 10 | 274 | 8.0 | 30.6 | 0.00 | 0.00 | 0.00 | 55 | 1010.9 |
| 20260505201539 | 11 | 249 | 8.0 | 19.3 | 0.00 | 0.00 | 0.00 | 57 | 1010.9 |
| 20260505200044 | 10 | 248 | 12.9 | 30.6 | 0.00 | 0.00 | 0.00 | 55 | 1010.8 |
| 20260505194537 | 10 | 259 | 12.9 | 27.4 | 0.00 | 0.00 | 0.00 | 56 | 1010.9 |
| 20260505193038 | 10 | 256 | 9.7 | 24.1 | 0.00 | 0.00 | 0.00 | 53 | 1010.6 |
| 20260505191542 | 11 | 246 | 9.7 | 20.9 | 0.00 | 0.00 | 0.00 | 52 | 1010.7 |
| 20260505190039 | 11 | 254 | 9.7 | 22.5 | 0.00 | 0.00 | 0.00 | 51 | 1010.7 |
| 20260505184534 | 11 | 233 | 6.4 | 24.1 | 0.00 | 0.00 | 0.00 | 47 | 1010.7 |
| 20260505183049 | 11 | 246 | 3.2 | 19.3 | 0.00 | 0.00 | 0.00 | 44 | 1010.8 |
| 20260505181533 | 12 | 219 | 3.2 | 19.3 | 0.00 | 0.00 | 0.00 | 43 | 1010.6 |
| 20260505180030 | 11 | 228 | 6.4 | 14.5 | 0.00 | 0.00 | 0.00 | 45 | 1010.9 |
| 20260505174529 | 10 | 254 | 4.8 | 12.9 | 0.00 | 0.00 | 0.00 | 46 | 1011.3 |
| 20260505173028 | 11 | 294 | 1.6 | 12.9 | 0.00 | 0.00 | 0.00 | 45 | 1011.3 |
| 20260505171526 | 10 | 242 | 1.6 | 8.0 | 0.00 | 0.00 | 0.00 | 46 | 1011.5 |
| 20260505170026 | 10 | 239 | 3.2 | 16.1 | 0.00 | 0.00 | 0.00 | 47 | 1011.6 |
| 20260505164523 | 10 | 240 | 4.8 | 11.3 | 0.00 | 0.00 | 0.00 | 48 | 1011.7 |
| 20260505163024 | 9 | 246 | 1.6 | 14.5 | 0.00 | 0.00 | 0.00 | 48 | 1011.9 |
| 20260505161523 | 8 | 246 | 4.8 | 16.1 | 0.00 | 0.00 | 0.00 | 51 | 1011.9 |
| 20260505153022 | 8 | 252 | 3.2 | 11.3 | 0.00 | 0.00 | 0.00 | 52 | 1012.2 |
| 20260505151520 | 8 | 250 | 3.2 | 12.9 | 0.00 | 0.00 | 0.00 | 52 | 1012.1 |
| 20260505124519 | 6 | 265 | 0.0 | 4.8 | 0.00 | 0.00 | 0.00 | 52 | 1012.5 |
| 20260505123009 | 6 | 265 | 4.8 | 9.7 | 0.00 | 0.00 | 0.00 | 51 | 1012.4 |
| 20260505121511 | 4 | 262 | 0.0 | 6.4 | 0.00 | 0.00 | 0.00 | 55 | 1012.1 |
| 20260505120018 | 5 | 262 | 0.0 | 6.4 | 0.00 | 0.00 | 0.00 | 53 | 1011.9 |
| 20260505114504 | 5 | 262 | 0.0 | 6.4 | 0.00 | 0.00 | 0.00 | 53 | 1012.1 |
| 20260505113125 | 5 | 262 | 0.0 | 0.0 | 0.00 | 0.00 | 0.00 | 52 | 1012.3 |
| 20260505111556 | 6 | 262 | 0.0 | 4.8 | 0.00 | 0.00 | 0.00 | 50 | 1012.1 |
| 20260505101552 | 7 | 260 | 0.0 | 0.0 | 0.00 | 0.00 | 0.00 | 47 | 1012.0 |
| 20260505100044 | 7 | 260 | 0.0 | 0.0 | 0.00 | 0.00 | 0.00 | 46 | 1012.0 |
| 20260505094543 | 8 | 260 | 0.0 | 1.6 | 0.00 | 0.00 | 0.00 | 45 | 1011.9 |
| 20260505093050 | 8 | 260 | 0.0 | 3.2 | 0.00 | 0.00 | 0.00 | 43 | 1011.9 |
| 20260505091550 | 8 | 260 | 3.2 | 12.9 | 0.00 | 0.00 | 0.00 | 45 | 1011.8 |
| 20260505090040 | 8 | 260 | 0.0 | 1.6 | 0.00 | 0.00 | 0.00 | 42 | 1012.1 |
| 20260505084534 | 9 | 260 | 0.0 | 1.6 | 0.00 | 0.00 | 0.00 | 40 | 1012.3 |
| 20260505083032 | 9 | 260 | 0.0 | 4.8 | 0.00 | 0.00 | 0.00 | 39 | 1012.6 |
| 20260505081528 | 10 | 260 | 0.0 | 4.8 | 0.00 | 0.00 | 0.00 | 40 | 1013.1 |
| 20260505080027 | 10 | 261 | 1.6 | 8.0 | 0.00 | 0.00 | 0.00 | 37 | 1012.9 |
| 20260505074528 | 10 | 259 | 0.0 | 8.0 | 0.00 | 0.00 | 0.00 | 38 | 1013.1 |
| 20260505073027 | 10 | 265 | 3.2 | 11.3 | 0.00 | 0.00 | 0.00 | 36 | 1012.8 |
| 20260505071530 | 11 | 265 | 0.0 | 3.2 | 0.00 | 0.00 | 0.00 | 36 | 1012.5 |
| 20260505070021 | 11 | 265 | 3.2 | 11.3 | 0.00 | 0.00 | 0.00 | 37 | 1012.8 |
| 20260505064517 | 11 | 251 | 0.0 | 8.0 | 0.00 | 0.00 | 0.00 | 38 | 1012.8 |
| 20260505063016 | 11 | 252 | 3.2 | 11.3 | 0.00 | 0.00 | 0.00 | 37 | 1012.8 |
| 20260505061517 | 12 | 253 | 4.8 | 11.3 | 0.00 | 0.00 | 0.00 | 36 | 1012.8 |